This demonstration page uses our WeatherBlox Daily Observations layout. Learn more.

Left ArrowRight Arrow

39.92423, -83.80882

Hourly Observations for August 22, 2021

Temp ( °F °C ) Dew Point ( °F °C ) Humidity (%) Winds ( mph kmh ) Pressure ( in mb ) Visibility ( mi km ) Precip ( " mm )
12:56 am 00:56 Clear 66 19 N/A N/A E 3 6 29.93 1013 7 11 0.00 0.00
1:56 am 01:56 Clear 66 19 N/A N/A Calm 29.93 1014 7 11 0.00 0.00
2:01 am 02:01 Clear with Mist and Fog 66 19 N/A N/A Calm 29.93 1013 2 3 0.00 0.00
2:10 am 02:10 Hazy 66 19 N/A N/A Calm 29.93 1013 4 6 0.00 0.00
2:56 am 02:56 Clear 66 19 N/A N/A Calm 29.93 1014 8 13 0.00 0.00
3:56 am 03:56 Hazy 64 18 N/A N/A Calm 29.93 1014 5 8 0.00 0.00
4:47 am 04:47 Clear with Mist and Fog 64 18 N/A N/A Calm 29.94 1014 1 2 0.00 0.00
4:53 am 04:53 Clear with Mist and Fog 64 18 N/A N/A Calm 29.94 1014 1 1 0.00 0.00
4:56 am 04:56 Clear with Mist and Fog 64 18 N/A N/A Calm 29.95 1014 1 2 0.00 0.00
5:11 am 05:11 Clear with Mist and Fog 64 18 N/A N/A Calm 29.94 1014 3 5 0.00 0.00
5:56 am 05:56 Clear 64 18 N/A N/A Calm 29.95 1014 10 16 0.00 0.00
6:56 am 06:56 Sunny 64 18 N/A N/A Calm 29.96 1015 10 16 0.00 0.00
7:34 am 07:34 Hazy 63 17 N/A N/A Calm 29.96 1015 6 10 0.00 0.00
7:56 am 07:56 Hazy 66 19 N/A N/A Calm 29.97 1015 4 6 0.00 0.00
8:56 am 08:56 Sunny 73 22.8 73 22.8 100 100 Calm 29.99 1016 9 14 0.00 0.00
9:56 am 09:56 Sunny 79 26.1 71 21.7 77 77 NW 3 6 29.99 1016 10 16 0.00 0.00
10:56 am 10:56 Sunny 83 28.3 72 22.2 70 70 NNE 5 7 29.99 1016 10 16 0.00 0.00
11:56 am 11:56 Sunny 85 29.4 72 22.2 65 65 NNE 7 11 29.99 1016 10 16 0.00 0.00
12:56 pm 12:56 Mostly Sunny 85 29.4 70 21.1 61 61 VRB 3 6 29.98 1015 10 16 0.00 0.00
1:56 pm 13:56 Partly Cloudy 84 28.9 69 20.6 61 61 Calm 29.97 1015 10 16 0.00 0.00
2:56 pm 14:56 Partly Cloudy 84 28.9 71 21.7 65 65 SSE 6 9 29.97 1015 10 16 0.00 0.00
3:56 pm 15:56 Mostly Sunny 85 29.4 71 21.7 63 63 SSE 6 9 29.95 1014 10 16 0.00 0.00
4:56 pm 16:56 Sunny 89 31.7 68 20 50 50 NNW 5 7 29.94 1014 10 16 0.00 0.00
5:56 pm 17:56 Mostly Cloudy 87 30.6 70 21.1 57 57 N 6 9 29.94 1014 10 16 0.00 0.00
6:56 pm 18:56 Mostly Cloudy 84 28.9 71 21.7 65 65 NW 6 9 29.94 1014 10 16 0.00 0.00
7:56 pm 19:56 Mostly Sunny 81 27.2 73 22.8 77 77 WNW 5 7 29.95 1014 10 16 0.00 0.00
8:56 pm 20:56 Clear 74 23.3 74 23.3 100 100 Calm 29.95 1014 10 16 0.00 0.00
9:56 pm 21:56 Clear 73 23 N/A N/A Calm 29.96 1014 10 16 0.00 0.00
10:56 pm 22:56 Clear 70 21 N/A N/A Calm 29.96 1014 10 16 0.00 0.00
11:56 pm 23:56 Clear 70 21 N/A N/A Calm 29.96 1015 10 16 0.00 0.00

Powered by AerisWeather